DMSP 5D-2 F13 DEB, 40558

Orbit data source: Space-Track

DMSP 5D-2 F13 DEB, 40558 is space debris in SSO originally from a launch on Fri, 24 Mar 1995 UTC launched from the Air Force Western Test Range (AFWTR). Debris objects in space refer to the collection of defunct objects orbiting the Earth. Examples of debris include non-operational satellites, rocket bodies, and fragments generated from explosions, collisions, or faulty payload assembly.

Loading next visibility...
Identifier
40558, 1995-015DR
Orbit
SSO
Country
Flag of USUS
Related business
Manufacturer
Unknown
Mission
Spacecraft
Bus & Motor
Unknown
Mass
Unknown
Launch date (UTC)
1995-03-24 (31 years ago)
Launch vehicle
Unknown
Launch site
Air Force Western Test Range (AFWTR)
Object type
Payload
Rocket body
Debris
Shape & HBR
Unknown shape, 0.1 m
Radar Cross Section
Small (<0.1 m²)

Expand to show TLE details & history
Last TLE update: 1 day ago

TLE from 1 day ago
0 DMSP 5D-2 F13 DEB
1 40558U 95015DR  25340.42278903  .00007967  00000-0  35097-2 0  9996
2 40558  98.9511 326.0776 0043564 258.9585 100.6691 14.23153835549110
Epoch: 2025-12-06T10:08Z
TLE epoch observation values (Epoch: 2025-12-06T10:08:48.972Z)
Latitude
-0.00002°
Longitude
98.4228°
Altitude
823.551 km
Speed
7.438 km/s
True Right ascension
21h 44m 18s
True Declination
0° 00' 00"
Sunlit
Object was in daylight at epoch
Visualization orbit readout
Latitude
Unknown
Longitude
Unknown
Altitude
Unknown
Speed
Unknown
Apparent Right ascension
Unknown
Apparent Declination
Unknown
Sunlit
N/A
Visualization observer readout
Local Sidereal Time
13:32:21
Azimuth
Unknown
Elevation
Unknown
Doppler factor
Unknown
Orbital elements
Apogee altitude
843.195 km
Perigee altitude
780.55 km
Semi-major axis
7,190.01 km
Eccentricity
0.00436
Inclination
98.9511°
RAAN
326.0776°
Arg. of periapsis
258.9585°
True anomaly
101.15918°
Mean anomaly
100.6691°
Eccentric anomaly
100.91419°
Mean motion
3.55999 °/min
Orbital period
101.12 mins
BSTAR
0.0035097
Loading maneuver chart data...
Computing Atmospheric mass density...

Documentation

Showing up to 5 results
|